This demonstration page uses our WeatherBlox Daily Observations layout. Learn more.

Left ArrowRight Arrow

41.55636, -103.73856

Hourly Observations for December 1, 2022

Temp ( °F °C ) Dew Point ( °F °C ) Humidity (%) Winds ( mph kmh ) Pressure ( in mb ) Visibility ( mi km ) Precip ( " mm )
12:55 am 00:55 Clear 22 -5.5 14 -9.8 72 72 NNE 12 19 29.92 1013 10 16 0.00 0.00
1:55 am 01:55 Clear 20 -6.6 14 -10 77 77 SW 7 11 29.93 1014 10 16 0.00 0.00
2:55 am 02:55 Clear 22 -5.8 13 -10.8 68 68 W 5 7 29.92 1013 10 16 0.00 0.00
3:55 am 03:55 Clear 29 -1.8 13 -10.4 52 52 NW 10 17 29.86 1011 10 16 0.00 0.00
4:55 am 04:55 Partly Cloudy 32 -0.2 14 -10.2 47 47 NW 8 13 29.84 1011 10 16 0.00 0.00
5:55 am 05:55 Clear 31 -0.6 13 -10.5 47 47 WSW 6 9 29.85 1011 10 16 0.00 0.00
6:55 am 06:55 Clear 33 0.7 17 -8.5 50 50 SW 7 11 29.84 1010 10 16 0.00 0.00
7:55 am 07:55 Sunny 37 2.6 16 -8.7 43 43 WSW 7 11 29.83 1010 10 16 0.00 0.00
8:55 am 08:55 Sunny 33 0.5 19 -7 57 57 SW 7 11 29.83 1010 10 16 0.00 0.00
9:55 am 09:55 Sunny 42 5.8 20 -6.4 41 41 WSW 7 11 29.80 1009 10 16 0.00 0.00
10:55 am 10:55 Sunny 44 6.4 22 -5.6 42 42 SW 15 24 29.76 1008 10 16 0.00 0.00
11:55 am 11:55 Sunny 45 7.2 21 -6.2 38 38 SW 16 26 29.75 1008 10 16 0.00 0.00
12:55 pm 12:55 Sunny 47 8.6 21 -6 35 35 Calm 29.71 1006 10 16 0.00 0.00
1:55 pm 13:55 Sunny 45 7.4 24 -4.4 43 43 SW 18 30 29.71 1006 10 16 0.00 0.00
2:55 pm 14:55 Sunny 46 7.6 24 -4.2 43 43 SW 13 20 29.68 1005 10 16 0.00 0.00
3:55 pm 15:55 Sunny 44 6.4 24 -4.4 46 46 WSW 8 13 29.68 1005 10 16 0.00 0.00
4:55 pm 16:55 Clear 43 5.9 20 -6.4 41 41 WSW 6 9 29.67 1005 10 16 0.00 0.00
5:55 pm 17:55 Clear 42 5.7 20 -6.5 41 41 SSW 8 13 29.65 1004 10 16 0.00 0.00
6:55 pm 18:55 Partly Cloudy 42 5.3 21 -6 44 44 W 12 19 29.63 1003 10 16 0.00 0.00
7:55 pm 19:55 Partly Cloudy 40 4.2 20 -6.7 45 45 NW 5 7 29.63 1003 10 16 0.00 0.00
8:55 pm 20:55 Clear 39 3.8 20 -6.5 47 47 WSW 6 9 29.63 1003 10 16 0.00 0.00
9:55 pm 21:55 Clear 36 2.1 21 -6.2 54 54 SW 6 9 29.60 1002 10 16 0.00 0.00
10:55 pm 22:55 Clear 35 1.5 21 -6.3 56 56 WSW 6 9 29.59 1002 10 16 0.00 0.00
11:55 pm 23:55 undefined 41 5.1 18 -7.7 39 39 Calm 29.54 1000 10 16 0.00 0.00

Powered by AerisWeather